Regional Weather Roundup
Issued by NWS Newport/Morehead, NC

Current Version | Previous Version | Graphics & Text | Print | Product List | Glossary Off
Versions: 1 2 3 4 5 6 7 8 9 10 11 12 13 14 15 16 17 18 19 20 21 22 23 24 25 26 27 28 29 30 31 32 33 34 35 36 37 38 39 40 41 42 43 44 45 46 47 48 49 50

000
ASUS42 KMHX 040213
RWRMHX
WEATHER ROUNDUP FOR EASTERN NORTH CAROLINA
NATIONAL WEATHER SERVICE NEWPORT/MOREHEAD CITY NC
1000 PM EDT MON AUG 03 2015

NOTE: "FAIR" INDICATES FEW OR NO CLOUDS BELOW 12,000 FEET
WITH NO SIGNIFICANT WEATHER AND/OR OBSTRUCTIONS TO VISIBILITY

NCZ015>017-031-032-045>047-102-103-040300-
NORTH COAST

CITY           SKY/WX    TMP DP  RH WIND       PRES   REMARKS
EDENTON          N/A     78  71  78 S10G16    29.95R
ELIZABETH CITY PTCLDY    78  73  84 S12       29.94R
KITTY HAWK     MOCLDY    78  72  82 SW9       29.95R
MANTEO         MOCLDY    78  73  84 SW18      29.96R

$$

NCZ045>047-081-094-103-104-040300-
CENTRAL COAST

CITY           SKY/WX    TMP DP  RH WIND       PRES   REMARKS
FRISCO         MOCLDY    79  73  82 S12       29.99R
SWANQUARTER      N/A     79 N/A N/A S17       29.94R

$$

NCZ095-097-098-100-101-040300-
SOUTHERN COAST

CITY           SKY/WX    TMP DP  RH WIND       PRES   REMARKS
BEAUFORT       MOCLDY    79  74  84 S10       29.98R
CEDAR ISLAND     N/A     79 N/A N/A SE7G16    30.03R
JACKSONVILLE   MOCLDY    77  74  90 S6        29.97R
PINEY ISLAND   MOCLDY   N/A N/A N/A S6        29.98R
WILMINGTON     MOCLDY    77  75  93 S3        29.97R


$$

NCZ011>013-027>030-043-044-078>080-089-090>093-098-040300-
COASTAL PLAIN

CITY           SKY/WX    TMP DP  RH WIND       PRES   REMARKS
AHOSKIE        CLEAR     79  73  80 S5        29.93R
CLINTON        CLEAR     77  74  90 CALM      29.96R
ELIZABETHTOWN  PTCLDY    78  75  90 S3        29.96R
GOLDSBORO      CLEAR     79  73  82 VRB5      29.94R
GREENVILLE     CLEAR     79  72  78 SW10      29.97R
HAVELOCK       MOCLDY    78  74  87 S5        29.99R
KENANSVILLE    CLEAR    N/A N/A N/A CALM      29.98R
KINSTON        CLEAR     77  72  83 S6        29.97R
NEW BERN       PTCLDY    76  73  91 S5        29.98R
RICHLANDS      PTCLDY    75  70  83 S3        29.97R
ROCKY MOUNT    CLEAR     82  72  71 S8        29.94R
WASHINGTON     CLEAR     76  71  83 S6        29.97R
WHITEVILLE     PTCLDY    78  76  92 S3        29.96R

$$

AMZ130-135-150-152-154-156-158-170-250-252-270-ANZ085-086-088-633-658-670-040300-
MARINE OBSERVATIONS

STATION/POSITION TIME  TEMP    WIND        PRES    WAVE   SWELL
                       AIR SEA DIR/SP/G            HT/PER HT/PER
                 (UTC) (F)     (DEG/KT/KT) (MB)    (FT/S) (FT/S)
CHESAPEAKE LIGHT 0200   80     210/ 17/ 19 1013.4
64 E VA BEACH    0150   80 81  210/ 21/ 25 1013.4    5/ 7   2/11
DUCK             0100   79 65  210/ 11/ 15 1012.7
2 E DUCK         0111      69                N/A     2/11
OREGON INLET     0100   80 81  200/ 19/ 23 1014.1
13E OREGON INLT  0200      80                N/A     5/ 5   2/12
HATTERAS CG      0100   78 80  180/  9/ 16 1014.5
DIAMOND BUOY     0150   81 84  180/ 19/ 23 1015.3    4/ 7   2/ 7
CAPE LOOKOUT     0200   80     200/  8/ 11 1015.3
BEAUFORT LAB     0100   80 80  200/ 11/ 13 1014.0
30 SE NEW RVR IN NOT AVBL
27 SE WRIGHTSVLE 0100   78 82  200/ 14/ 16   N/A
5 SE WRIGHTSVLE  0108   82 82  190/ 12/ 14 1014.1
225 S CAPE HAT   0150   80 81  210/  8/ 10 1018.2    5/ 7   5/ 7
41 SE CHARLESTON 0150   84 83  160/ 14/ 16 1012.8    5/ 7   3/ 7

$$


USA.gov is the U.S. government's official web portal to all federal, state and local government web resources and services.